Location: Colebrook
(42.0017°N, 73.0973°W)
Time: 08:33:25
(UTC-04:00)

ISS - Pass Details

Date: 30 September 2021
Orbit: 417 x 423 km, 51.6° (Epoch: 16 October)

Event Time Altitude Azimuth Distance (km) Brightness Sun altitude
Rises 21:14:58 0° 303° (WNW) 2,366 1.2 -29.8°
Reaches altitude 10° 21:17:04 10° 301° (WNW) 1,500 -0.1 -30.1°
Enters shadow 21:17:42 15° 300° (WNW) 1,248 -0.6 -30.2°
